Regional Weather Roundup
Issued by NWS

Home | Current Version | Previous Version | Graphics & Text | Print | Product List | Glossary On
Versions: 1 2 3 4 5 6 7 8 9 10 11 12 13 14 15 16 17 18 19 20 21 22 23 24 25 26 27
000
ASUS45 KPSR 201610
RWRAZ

ARIZONA HOURLY REGIONAL WEATHER ROUNDUP
NATIONAL WEATHER SERVICE PHOENIX AZ
900 AM MST SUN MAY 20 2018

NOTE: FAIR INDICATES FEW OR NO CLOUDS BELOW 12,000 FEET WITH NO
SIGNIFICANT WEATHER AND/OR OBSTRUCTIONS TO VISIBILITY.

AZZ001>003-036-201700-
NORTHWEST ARIZONA

CITY           SKY/WX    TMP DP  RH WIND       PRES   REMARKS
BULLHEAD CITY  MOSUNNY   81  34  18 SW6       29.81R
KINGMAN          N/A     77  32  19 W3        29.94R
$$

AZZ004>008-015-016-018-201700-
NORTH CENTRAL ARIZONA

CITY           SKY/WX    TMP DP  RH WIND       PRES   REMARKS
GRAND CANYON   SUNNY     66  22  18 SW12      30.11R
WILLIAMS       SUNNY     66  12  12 S7G22     30.10R
PRESCOTT       SUNNY     71  25  17 E9        30.03S
FLAGSTAFF      SUNNY     63  21  20 SW13G22   30.13R
PAYSON         SUNNY     70  23  17 S8        30.06S
PAGE           MOSUNNY   75  36  24 NE5       29.96R
$$

AZZ009>014-017-201700-
NORTHEAST ARIZONA

CITY           SKY/WX    TMP DP  RH WIND       PRES   REMARKS
WINSLOW        SUNNY     74  22  14 VRB5      30.04R
SAINT JOHNS    SUNNY     71  14  11 VRB6      30.09S
WINDOW ROCK    SUNNY     67  14  13 SE8G17    30.14S
SHOW LOW       SUNNY     68  14  12 S10       30.14S
$$

AZZ540-542>544-546-548-201700-
GREATER PHOENIX AREA

CITY           SKY/WX    TMP DP  RH WIND       PRES   REMARKS
PHOENIX        SUNNY     82  32  16 SE8       29.85R
BUCKEYE        SUNNY     79  36  21 S3        29.86S
GLENDALE       SUNNY     82  34  17 CALM      29.87S
LUKE AFB       SUNNY     82  35  19 CALM      29.84S
DEER VALLEY    SUNNY     81  32  17 E7        29.87R
SCOTTSDALE     SUNNY     82  34  17 S7        29.89R
MESA-FALCON    SUNNY     82  30  15 SE9       29.88R
MESA-GATEWAY   SUNNY     82  30  15 SE9       29.89R
CHANDLER       SUNNY     81  36  19 CALM      29.87R
$$

AZZ539-553-201700-
SOUTHWEST MARICOPA COUNTY AND PINAL COUNTY

CITY           SKY/WX    TMP DP  RH WIND       PRES   REMARKS
CASA GRANDE    SUNNY     80  32  17 E3        29.89S
GILA BEND      FAIR      82  20  10 CALM      29.84R
$$

AZZ503-504-507>509-201700-
SOUTHEAST ARIZONA

CITY           SKY/WX    TMP DP  RH WIND       PRES   REMARKS
TUCSON         SUNNY     77  28  16 CALM      29.95S
DAVIS-MONTHAN  SUNNY     80  27  14 CALM      29.93S
RYAN FIELD     SUNNY     75  30  19 CALM      29.95R
NOGALES        SUNNY     78  24  13 SE10G17   30.00S
SIERRA VISTA   SUNNY     75  15  10 E10       30.05S
DOUGLAS        SUNNY     74  14  10 VRB6      30.03F
SAFFORD        SUNNY     77  21  12 CALM      29.96R
$$

AZZ532-201700-
SOUTHWEST ARIZONA

CITY           SKY/WX    TMP DP  RH WIND       PRES   REMARKS
YUMA           SUNNY     79  53  40 S8        29.82R
$$

CAZ041-043-047-048-061-525>527-560>570-201700-
SOUTHERN CALIFORNIA

CITY           SKY/WX    TMP DP  RH WIND       PRES   REMARKS
DOWNTOWN L.A.  CLOUDY    63  55  75 CALM      29.94S
L.A. AIRPORT   CLOUDY    62  55  77 W6        29.95S
SAN DIEGO      CLOUDY    62  54  74 VRB5      29.97R
BURBANK        CLOUDY    61  56  83 S5        29.94
ONTARIO        CLOUDY    60  55  83 VRB3      29.95S
RIVERSIDE      CLOUDY    61  56  83 CALM      29.94F
PALM SPRINGS   SUNNY     77  50  38 CALM      29.82S
EL CENTRO NAS  SUNNY     79  50  36 NE5       29.81S
IMPERIAL       SUNNY     77  56  48 CALM      29.79S
BLYTHE         SUNNY     81  47  30 S8        29.80S
NEEDLES        SUNNY     86  34  15 E6        29.81S
$$

NVZ020-UTZ003-201700-
SOUTHERN NEVADA-UTAH

CITY           SKY/WX    TMP DP  RH WIND       PRES   REMARKS
LAS VEGAS      PTSUNNY   80  40  23 N5        29.85R
SALT LAKE CITY MOSUNNY   71  42  35 S7        29.94F
$$

NMZ009-TXZ055-201700-
NEW MEXICO-WEST TEXAS

CITY           SKY/WX    TMP DP  RH WIND       PRES   REMARKS
ALBUQUERQUE    MOSUNNY   64  41  42 E21G31    30.17R
EL PASO        SUNNY     77  44  30 E14       30.06S
$$


........................KEY........................
SKY/WX - SKY CONDITION/WEATHER
TMP    - TEMPERATURE IN FAHRENHEIT
DP     - DEW POINT IN FAHRENHEIT
RH     - RELATIVE HUMIDITY IN PERCENT
WIND   - DIRECTION AND SPEED IN MILES PER HOUR (MPH)
VRB    - VARIABLE WIND DIRECTION
PRES   - MEAN SEA LEVEL PRESSURE IN INCHES OF MERCURY
         F - FALLING PRESSURE   R - RISING PRESSURE
         S - STEADY PRESSURE
VSB    - VISIBILITY IN MILES
HX     - HEAT INDEX IN FAHRENHEIT
WCI    - WIND CHILL INDEX IN FAHRENHEIT
TC     - TEMPERATURE IN CELSIUS WHICH IS ALSO KNOWN AS
         TEMPERATURE IN CENTIGRADE
AFB    - AIR FORCE BASE
         LUKE AFB IS LUKE AIR FORCE BASE
         DAVIS-MONTHAN IS DAVIS-MONTHAN AIR FORCE BASE
NAS    - NAVAL AIR STATION
         EL CENTRO NAS IS EL CENTRO NAVAL AIR STATION
N/A    - NOT AVAILABLE





USA.gov is the U.S. government's official web portal to all federal, state and local government web resources and services.